Glen Elder, KS (67446)

10:04 PM CST on February 10, 2016 (GMT -0600)
Glen Elder | | Change Station
CLOSE
Current Station
Personal Weather Station
Location: Glen Elder, KS
Elevation: 1453 ft
Nearby Weather Stations

Elev 1453 ft 39.50 °N, 98.31 °W | Updated 8 seconds ago

Partly Cloudy
Partly Cloudy
41.9 °F
Feels Like 39 °F
N
5.0
Wind Variable Wind from NE
Gusts 6.0 mph

Today
High -- | Low -- °F
--% Chance of Precip.
Yesterday
High -- | Low -- °F
Precip. -- in
Pressure 30.05 in
Visibility 10.0 miles
Clouds Clear
Windchill 39 °F
Dew Point 34 °F
Humidity 73%
Rainfall 0.00 in
Snow Depth Not available.
7:31 AM 6:03 PM
Waxing Crescent, 9% visible
METAR KCNK 110355Z AUTO 00000KT 10SM CLR 04/M01 A3002 RMK AO2 SLP175 T00391011
Pressure 30.05 in
Visibility 10.0 miles
Clouds Clear
Windchill 39 °F
Dew Point 34 °F
Humidity 73%
Rainfall 0.00 in
Snow Depth Not available.
7:31 AM 6:03 PM
Waxing Crescent, 9% visible
METAR KCNK 110355Z AUTO 00000KT 10SM CLR 04/M01 A3002 RMK AO2 SLP175 T00391011

10-Day Weather Forecast

Almanac

Astronomy

Feb. 10, 2016 Rise Set
Actual Time
Civil Twilight
Nautical Twilight
Astronomical Twilight
Moon
Length of Visible Light
Length of Day
Tomorrow will be .
, % of the Moon is Illuminated

Today's Extremes

State Highs State Lows

Community

WunderPhotos

Upload Photos

1,892,007 photos uploaded!

WunderBlog® & News

Nearby

Air Quality

  Air Quality AQ Index Pollutant
Not available.

Snow Depth

Station Depth Elevation

Earthquake Activity

City Distance Mag. Time & Date
Minimum magnitude displayed is 2.5.

Coastal Water Temperatures

Place Temperature

Stations

Nearby Weather Stations

Station Location Temp. Windchill Dew Point Humidity Wind Precip. Elev Updated Type
                   

Watches & Warnings

There are currently no watches in effect.